Chignik, AK

3:58 AM AKST on February 12, 2016 (GMT -0900)
Chignik

Weather History for PAJC - January, 2014

Change the Weather History Date:

Friday, January 3, 2014

  Actual Average (PAPH) Record (PAPH)
Temperature  
Mean Temperature 38 °F -  
Max Temperature 44 °F 26 °F - (-1)
Min Temperature 33 °F 15 °F - (-1)
Degree Days  
Heating Degree Days 26    
Moisture  
Dew Point 33 °F    
Average Humidity 82    
Maximum Humidity 100    
Minimum Humidity 49    
Precipitation  
Precipitation 0.14 in - - ()
Sea Level Pressure  
Sea Level Pressure 29.99 in    
Wind  
Wind Speed 8 mph (East)    
Max Wind Speed 25 mph    
Max Gust Speed 36 mph    
Visibility 10 miles    
Events      
Averages and records for this station are not official NWS values.
T = Trace of Precipitation, MM = Missing Value Source: NWS Daily Summary

Daily Weather History Graph

Daily Weather History Graph

Search for Another Location

Airport or City:

Trip Planner

Search our weather history database for the weather conditions in past years. The results will help you decide how hot, cold, wet, or windy it might be!

Date:

Astronomy

Jan. 03, 2014 Rise Set
Actual Time 10:05 AM AKST 5:10 PM AKST
Civil Twilight 9:18 AM AKST 5:57 PM AKST
Nautical Twilight 8:29 AM AKST 6:46 PM AKST
Astronomical Twilight 7:43 AM AKST 7:32 PM AKST
Moon 11:01 AM AKST (1/3) 9:16 PM AKST (1/3)
Length of Visible Light 8h 39m
Length of Day
7h 04m
Waxing Crescent, 9% of the Moon is Illuminated
Jan 3
Waxing Crescent
Jan 7
First Quarter
Jan 15
Full
Jan 23
Last Quarter
Jan 30
New

Hourly Weather History & Observations

Time (AKST) Temp. Windchill Dew Point Humidity Pressure Visibility Wind Dir Wind Speed Gust Speed Precip Events Conditions
12:16 AM 44.6 °F 39.2 °F 26.6 °F 49% 29.99 in 10.0 mi SW 10.4 mph 17.3 mph N/A   Clear
12:36 AM 42.8 °F 40.1 °F 28.4 °F 57% 30.00 in 10.0 mi South 4.6 mph - N/A   Clear
12:56 AM 42.8 °F 37.5 °F 30.2 °F 61% 30.02 in 10.0 mi NNE 9.2 mph 16.1 mph N/A   Partly Cloudy
1:16 AM 42.8 °F 37.5 °F 28.4 °F 57% 30.02 in 10.0 mi West 9.2 mph - N/A   Mostly Cloudy
1:36 AM 42.8 °F 37.5 °F 28.4 °F 57% 30.01 in 10.0 mi WSW 9.2 mph - N/A   Mostly Cloudy
1:56 AM 41.0 °F 35.8 °F 30.2 °F 65% 30.02 in 10.0 mi ENE 8.1 mph - N/A   Scattered Clouds
2:16 AM 42.8 °F 38.0 °F 30.2 °F 61% 30.02 in 10.0 mi NNE 8.1 mph - N/A   Scattered Clouds
2:36 AM 41.0 °F 39.0 °F 30.2 °F 65% 30.03 in 10.0 mi NE 3.5 mph - N/A   Mostly Cloudy
2:56 AM 42.8 °F - 30.2 °F 61% 30.04 in 10.0 mi Calm Calm - N/A   Mostly Cloudy
3:16 AM 41.0 °F 39.0 °F 28.4 °F 61% 30.05 in 10.0 mi SSE 3.5 mph - N/A   Scattered Clouds
3:36 AM 42.8 °F 38.6 °F 30.2 °F 61% 30.05 in 10.0 mi SSW 6.9 mph 19.6 mph N/A   Clear
3:56 AM 42.8 °F 41.1 °F 30.2 °F 61% 30.05 in 10.0 mi East 3.5 mph - N/A   Mostly Cloudy
4:16 AM 41.0 °F - 32.0 °F 70% 30.06 in 10.0 mi Calm Calm - N/A   Overcast
4:36 AM 41.0 °F 36.4 °F 30.2 °F 65% 30.06 in 10.0 mi ESE 6.9 mph - N/A   Scattered Clouds
4:56 AM 41.0 °F 39.0 °F 28.4 °F 61% 30.06 in 10.0 mi SSE 3.5 mph - N/A   Clear
5:16 AM 39.2 °F - 28.4 °F 65% 30.06 in 10.0 mi Calm Calm - N/A   Clear
5:36 AM 39.2 °F 37.0 °F 32.0 °F 75% 30.06 in 10.0 mi NE 3.5 mph - N/A   Clear
5:56 AM 37.4 °F 32.8 °F 30.2 °F 75% 30.07 in 10.0 mi NNE 5.8 mph - N/A   Clear
6:16 AM 37.4 °F - 30.2 °F 75% 30.07 in 10.0 mi Calm Calm - N/A   Clear
6:36 AM 37.4 °F - 33.8 °F 87% 30.07 in 10.0 mi Calm Calm - N/A   Clear
6:56 AM 37.4 °F 34.9 °F 32.0 °F 81% 30.07 in 10.0 mi SE 3.5 mph - N/A   Clear
7:16 AM 35.6 °F - 32.0 °F 87% 30.08 in 10.0 mi Calm Calm - N/A   Clear
7:36 AM 35.6 °F 32.8 °F 32.0 °F 87% 30.08 in 10.0 mi SSE 3.5 mph - N/A   Clear
7:56 AM 35.6 °F - 30.2 °F 81% 30.08 in 10.0 mi Calm Calm - N/A   Clear
8:16 AM 35.6 °F - 32.0 °F 87% 30.08 in 10.0 mi Calm Calm - N/A   Clear
8:36 AM 33.8 °F - 32.0 °F 93% 30.08 in 10.0 mi Calm Calm - N/A   Clear
8:56 AM 33.8 °F 29.6 °F 30.2 °F 87% 30.08 in 10.0 mi South 4.6 mph - N/A   Clear
9:16 AM 35.6 °F 32.8 °F 32.0 °F 87% 30.09 in 10.0 mi SSE 3.5 mph - N/A   Partly Cloudy
9:36 AM 37.4 °F - 32.0 °F 81% 30.09 in 10.0 mi Calm Calm - N/A   Mostly Cloudy
9:56 AM 37.4 °F 34.9 °F 33.8 °F 87% 30.09 in 10.0 mi ENE 3.5 mph - N/A   Overcast
10:16 AM 35.6 °F - 33.8 °F 93% 30.08 in 8.0 mi Calm Calm - N/A   Overcast
10:36 AM 35.6 °F - 35.6 °F 100% 30.08 in 7.0 mi Calm Calm - N/A   Overcast
10:56 AM 35.6 °F 30.7 °F 33.8 °F 93% 30.08 in 9.0 mi East 5.8 mph - N/A   Overcast
11:16 AM 37.4 °F 32.8 °F 37.4 °F 100% 30.08 in 3.0 mi East 5.8 mph - N/A   Overcast
11:36 AM 37.4 °F 32.8 °F 37.4 °F 100% 30.08 in 10.0 mi East 5.8 mph - N/A   Overcast
11:56 AM 39.2 °F 37.0 °F 35.6 °F 87% 30.08 in 10.0 mi ESE 3.5 mph - N/A   Overcast
12:16 PM 39.2 °F 37.0 °F 35.6 °F 87% 30.07 in 10.0 mi East 3.5 mph - N/A   Overcast
12:36 PM 39.2 °F 34.2 °F 33.8 °F 81% 30.07 in 10.0 mi East 6.9 mph - N/A   Overcast
12:56 PM 39.2 °F 35.9 °F 33.8 °F 81% 30.07 in 10.0 mi East 4.6 mph - N/A   Overcast
1:16 PM 39.2 °F 35.9 °F 33.8 °F 81% 30.06 in 10.0 mi East 4.6 mph - N/A   Overcast
1:36 PM 39.2 °F 34.2 °F 33.8 °F 81% 30.05 in 10.0 mi ESE 6.9 mph - N/A   Overcast
1:56 PM 39.2 °F 34.2 °F 33.8 °F 81% 30.05 in 10.0 mi ESE 6.9 mph - N/A   Overcast
2:16 PM 39.2 °F 33.6 °F 33.8 °F 81% 30.04 in 10.0 mi East 8.1 mph - N/A   Overcast
2:36 PM 39.2 °F 34.2 °F 33.8 °F 81% 30.03 in 10.0 mi East 6.9 mph - N/A   Overcast
2:56 PM 39.2 °F 33.6 °F 33.8 °F 81% 30.02 in 10.0 mi ENE 8.1 mph - N/A   Overcast
3:16 PM 37.4 °F 32.8 °F 33.8 °F 87% 30.01 in 10.0 mi ENE 5.8 mph - N/A   Overcast
3:36 PM 37.4 °F 31.4 °F 33.8 °F 87% 29.99 in 10.0 mi East 8.1 mph - N/A   Overcast
3:56 PM 37.4 °F 30.8 °F 35.6 °F 93% 29.99 in 10.0 mi ENE 9.2 mph - N/A   Overcast
4:16 PM 37.4 °F 30.3 °F 33.8 °F 87% 29.98 in 10.0 mi East 10.4 mph - N/A   Overcast
4:36 PM 37.4 °F 30.3 °F 33.8 °F 87% 29.97 in 10.0 mi ENE 10.4 mph 16.1 mph N/A   Overcast
4:56 PM 37.4 °F 29.3 °F 33.8 °F 87% 29.97 in 10.0 mi ENE 12.7 mph 18.4 mph N/A   Overcast
5:16 PM 37.4 °F 30.3 °F 35.6 °F 93% 29.96 in 10.0 mi ENE 10.4 mph 19.6 mph N/A   Overcast
5:36 PM 37.4 °F 29.8 °F 35.6 °F 93% 29.95 in 10.0 mi ENE 11.5 mph 18.4 mph N/A   Overcast
5:56 PM 37.4 °F 28.2 °F 33.8 °F 87% 29.94 in 10.0 mi East 16.1 mph 24.2 mph N/A   Overcast
6:16 PM 37.4 °F 28.2 °F 33.8 °F 87% 29.93 in 9.0 mi ENE 16.1 mph 24.2 mph N/A   Overcast
6:36 PM 37.4 °F 29.8 °F 35.6 °F 93% 29.91 in 10.0 mi ENE 11.5 mph 19.6 mph N/A   Overcast
6:56 PM 37.4 °F 27.8 °F 33.8 °F 87% 29.91 in 10.0 mi NE 17.3 mph 23.0 mph N/A   Overcast
7:16 PM 37.4 °F 27.8 °F 35.6 °F 93% 29.90 in 10.0 mi ENE 17.3 mph 27.6 mph N/A   Overcast
7:36 PM 39.2 °F 29.8 °F 33.8 °F 81% 29.89 in 10.0 mi ENE 18.4 mph 25.3 mph N/A   Overcast
7:56 PM 37.4 °F 28.2 °F 33.8 °F 87% 29.88 in 10.0 mi ENE 16.1 mph 26.5 mph N/A   Overcast
8:16 PM 37.4 °F 26.6 °F 33.8 °F 87% 29.86 in 10.0 mi ENE 21.9 mph 31.1 mph N/A   Overcast
8:36 PM 37.4 °F 27.5 °F 33.8 °F 87% 29.84 in 8.0 mi ENE 18.4 mph 31.1 mph N/A   Overcast
8:56 PM 37.4 °F 27.2 °F 35.6 °F 93% 29.83 in 10.0 mi NE 19.6 mph 24.2 mph 0.01 in   Overcast
9:16 PM 37.4 °F 27.5 °F 35.6 °F 93% 29.81 in 10.0 mi ENE 18.4 mph 27.6 mph 0.01 in   Overcast
9:36 PM 37.4 °F 26.1 °F 35.6 °F 93% 29.80 in 9.0 mi NE 24.2 mph 35.7 mph 0.03 in   Overcast
9:56 PM 37.4 °F 26.4 °F 35.6 °F 93% 29.78 in 10.0 mi ENE 23.0 mph 29.9 mph 0.04 in   Overcast
10:16 PM 37.4 °F 26.1 °F 35.6 °F 93% 29.76 in 10.0 mi NE 24.2 mph 33.4 mph 0.02 in   Overcast
10:36 PM 37.4 °F 26.6 °F 35.6 °F 93% 29.75 in 10.0 mi ENE 21.9 mph 34.5 mph 0.03 in   Overcast
10:56 PM 37.4 °F 27.5 °F 35.6 °F 93% 29.73 in 10.0 mi ENE 18.4 mph 28.8 mph 0.04 in   Overcast
11:16 PM 37.4 °F 27.2 °F 35.6 °F 93% 29.72 in 10.0 mi ENE 19.6 mph 29.9 mph 0.01 in   Overcast
11:36 PM 37.4 °F 26.6 °F 35.6 °F 93% 29.71 in 10.0 mi ENE 21.9 mph 34.5 mph 0.03 in   Overcast
11:56 PM 37.4 °F 25.9 °F 35.6 °F 93% 29.69 in 9.0 mi NE 25.3 mph 34.5 mph 0.05 in   Overcast